| time (UTC) | temp C | wind direction | speed KPH | gust KPH | rain 1hr cm | rain 24hr cm | rain mn cm | humidity % | barometer mb |
| 20260508141505 | 15 | 182 | 4.8 | 8.0 | 0.00 | 0.00 | 0.00 | 53 | 1015.9 |
| 20260508141003 | 16 | 235 | 6.4 | 9.7 | 0.00 | 0.00 | 0.00 | 47 | 1015.3 |
| 20260508140500 | 15 | 309 | 4.8 | 8.0 | 0.00 | 0.00 | 0.00 | 49 | 1015.8 |
| 20260508135954 | 15 | 332 | 4.8 | 8.0 | 0.00 | 0.00 | 0.00 | 49 | 1015.9 |
| 20260508135452 | 15 | 258 | 3.2 | 4.8 | 0.00 | 0.00 | 0.00 | 48 | 1016.0 |
| 20260508134948 | 15 | 241 | 4.8 | 8.0 | 0.00 | 0.00 | 0.00 | 48 | 1015.8 |
| 20260508134445 | 14 | 337 | 6.4 | 8.0 | 0.00 | 0.00 | 0.00 | 50 | 1015.9 |
| 20260508133941 | 14 | 308 | 3.2 | 4.8 | 0.00 | 0.00 | 0.00 | 52 | 1015.7 |
| 20260508133439 | 14 | 240 | 1.6 | 3.2 | 0.00 | 0.00 | 0.00 | 54 | 1015.8 |
| 20260508132936 | 14 | 168 | 9.7 | 12.9 | 0.00 | 0.00 | 0.00 | 52 | 1015.8 |
| 20260508132434 | 13 | 266 | 4.8 | 4.8 | 0.00 | 0.00 | 0.00 | 51 | 1015.8 |
| 20260508131930 | 13 | 238 | 11.3 | 14.5 | 0.00 | 0.00 | 0.00 | 50 | 1015.9 |
| 20260508131425 | 13 | 291 | 8.0 | 8.0 | 0.00 | 0.00 | 0.00 | 50 | 1015.7 |
| 20260508130923 | 13 | 212 | 4.8 | 8.0 | 0.00 | 0.00 | 0.00 | 53 | 1016.0 |
| 20260508130420 | 12 | 261 | 6.4 | 8.0 | 0.00 | 0.00 | 0.00 | 52 | 1015.7 |
| 20260508125915 | 13 | 300 | 0.0 | 0.0 | 0.00 | 0.00 | 0.00 | 53 | 1015.5 |
| 20260508125412 | 13 | 252 | 0.0 | 1.6 | 0.00 | 0.00 | 0.00 | 54 | 1015.8 |
| 20260508124910 | 12 | 247 | 3.2 | 4.8 | 0.00 | 0.00 | 0.00 | 56 | 1015.9 |
| 20260508124407 | 12 | 221 | 3.2 | 3.2 | 0.00 | 0.00 | 0.00 | 56 | 1015.9 |
| 20260508123905 | 12 | 255 | 1.6 | 1.6 | 0.00 | 0.00 | 0.00 | 58 | 1015.7 |
| 20260508123403 | 11 | 177 | 3.2 | 3.2 | 0.00 | 0.00 | 0.00 | 59 | 1015.9 |
| 20260508122859 | 11 | 166 | 1.6 | 1.6 | 0.00 | 0.00 | 0.00 | 61 | 1015.8 |
| 20260508122356 | 11 | 238 | 4.8 | 4.8 | 0.00 | 0.00 | 0.00 | 60 | 1016.0 |
| 20260508121853 | 10 | 231 | 4.8 | 4.8 | 0.00 | 0.00 | 0.00 | 61 | 1015.8 |
| 20260508121352 | 10 | 180 | 3.2 | 4.8 | 0.00 | 0.00 | 0.00 | 63 | 1015.7 |
| 20260508120849 | 10 | 185 | 1.6 | 3.2 | 0.00 | 0.00 | 0.00 | 66 | 1015.9 |
| 20260508120347 | 9 | 213 | 3.2 | 3.2 | 0.00 | 0.00 | 0.00 | 69 | 1015.7 |
| 20260508115844 | 8 | 180 | 3.2 | 3.2 | 0.00 | 0.00 | 0.00 | 74 | 1015.8 |
| 20260508115341 | 8 | 223 | 0.0 | 0.0 | 0.00 | 0.00 | 0.00 | 77 | 1015.9 |
| 20260508114837 | 8 | 182 | 1.6 | 1.6 | 0.00 | 0.00 | 0.00 | 76 | 1015.8 |
| 20260508114335 | 7 | 187 | 1.6 | 1.6 | 0.00 | 0.00 | 0.00 | 79 | 1015.7 |
| 20260508113831 | 6 | 237 | 0.0 | 0.0 | 0.00 | 0.00 | 0.00 | 85 | 1015.8 |
| 20260508113329 | 6 | 237 | 0.0 | 0.0 | 0.00 | 0.00 | 0.00 | 87 | 1015.7 |
| 20260508112825 | 5 | 239 | 0.0 | 0.0 | 0.00 | 0.00 | 0.00 | 92 | 1015.4 |
| 20260508112323 | 5 | 240 | 0.0 | 0.0 | 0.00 | 0.00 | 0.00 | 93 | 1015.4 |
| 20260508111819 | 4 | 245 | 0.0 | 0.0 | 0.00 | 0.00 | 0.00 | 95 | 1015.2 |
| 20260508111316 | 3 | 245 | 0.0 | 0.0 | 0.00 | 0.00 | 0.00 | 96 | 1015.4 |
| 20260508110814 | 3 | 243 | 0.0 | 0.0 | 0.00 | 0.00 | 0.00 | 97 | 1015.3 |
| 20260508110311 | 3 | 225 | 0.0 | 0.0 | 0.00 | 0.00 | 0.00 | 98 | 1015.4 |
| 20260508105811 | 3 | 206 | 1.6 | 1.6 | 0.00 | 0.00 | 0.00 | 99 | 1015.5 |
| 20260508105308 | 3 | 254 | 0.0 | 0.0 | 0.00 | 0.00 | 0.00 | 99 | 1015.1 |
| 20260508104805 | 2 | 255 | 0.0 | 0.0 | 0.00 | 0.00 | 0.00 | 99 | 1015.1 |
| 20260508104301 | 2 | 255 | 0.0 | 0.0 | 0.00 | 0.00 | 0.00 | 99 | 1015.2 |
| 20260508103759 | 2 | 255 | 0.0 | 0.0 | 0.00 | 0.00 | 0.00 | 99 | 1015.2 |
| 20260508103255 | 2 | 255 | 0.0 | 0.0 | 0.00 | 0.00 | 0.00 | 99 | 1015.0 |
| 20260508102753 | 2 | 255 | 0.0 | 0.0 | 0.00 | 0.00 | 0.00 | 99 | 1014.8 |
| 20260508102251 | 2 | 255 | 0.0 | 0.0 | 0.00 | 0.00 | 0.00 | 99 | 1015.1 |
| 20260508101748 | 2 | 255 | 0.0 | 0.0 | 0.00 | 0.00 | 0.00 | 99 | 1015.1 |
| 20260508101246 | 2 | 255 | 0.0 | 0.0 | 0.00 | 0.00 | 0.00 | 99 | 1015.0 |
| 20260508100743 | 2 | 255 | 0.0 | 0.0 | 0.00 | 0.00 | 0.00 | 99 | 1015.1 |
| 20260508100241 | 2 | 255 | 0.0 | 0.0 | 0.00 | 0.00 | 0.00 | 99 | 1015.0 |
| 20260508095737 | 3 | 255 | 0.0 | 0.0 | 0.00 | 0.00 | 0.00 | 99 | 1015.2 |
| 20260508095235 | 3 | 256 | 0.0 | 0.0 | 0.00 | 0.00 | 0.00 | 99 | 1015.1 |
| 20260508094731 | 3 | 256 | 0.0 | 0.0 | 0.00 | 0.00 | 0.00 | 99 | 1015.1 |
| 20260508094228 | 3 | 256 | 0.0 | 0.0 | 0.00 | 0.00 | 0.00 | 99 | 1015.1 |
| 20260508093725 | 2 | 255 | 0.0 | 0.0 | 0.00 | 0.00 | 0.00 | 99 | 1015.3 |
| 20260508093223 | 2 | 259 | 0.0 | 0.0 | 0.00 | 0.00 | 0.00 | 98 | 1015.2 |
| 20260508092719 | 2 | 259 | 0.0 | 0.0 | 0.00 | 0.00 | 0.00 | 98 | 1014.9 |
| 20260508092218 | 3 | 259 | 0.0 | 0.0 | 0.00 | 0.00 | 0.00 | 98 | 1015.1 |
| 20260508091715 | 3 | 253 | 0.0 | 0.0 | 0.00 | 0.00 | 0.00 | 98 | 1015.1 |
| 20260508091212 | 3 | 252 | 0.0 | 0.0 | 0.00 | 0.00 | 0.00 | 98 | 1015.0 |
| 20260508090710 | 3 | 251 | 0.0 | 0.0 | 0.00 | 0.00 | 0.00 | 98 | 1015.1 |
| 20260508090207 | 3 | 261 | 0.0 | 0.0 | 0.00 | 0.00 | 0.00 | 97 | 1015.2 |
| 20260508085703 | 3 | 261 | 0.0 | 0.0 | 0.00 | 0.00 | 0.00 | 97 | 1015.3 |
| 20260508085201 | 3 | 261 | 0.0 | 0.0 | 0.00 | 0.00 | 0.00 | 97 | 1014.9 |
| 20260508084656 | 3 | 261 | 0.0 | 0.0 | 0.00 | 0.00 | 0.00 | 96 | 1015.2 |
| 20260508084154 | 4 | 261 | 0.0 | 0.0 | 0.00 | 0.00 | 0.00 | 96 | 1015.0 |
| 20260508083651 | 4 | 261 | 0.0 | 0.0 | 0.00 | 0.00 | 0.00 | 96 | 1015.1 |
| 20260508083149 | 4 | 271 | 0.0 | 0.0 | 0.00 | 0.00 | 0.00 | 95 | 1015.1 |
| 20260508082644 | 4 | 277 | 0.0 | 0.0 | 0.00 | 0.00 | 0.00 | 94 | 1015.1 |
| 20260508082141 | 4 | 277 | 0.0 | 0.0 | 0.00 | 0.00 | 0.00 | 94 | 1015.1 |
| 20260508081639 | 4 | 277 | 0.0 | 0.0 | 0.00 | 0.00 | 0.00 | 93 | 1015.1 |
| 20260508081135 | 5 | 277 | 0.0 | 0.0 | 0.00 | 0.00 | 0.00 | 93 | 1015.3 |
| 20260508080633 | 5 | 261 | 0.0 | 0.0 | 0.00 | 0.00 | 0.00 | 93 | 1015.1 |
| 20260508080131 | 5 | 266 | 0.0 | 0.0 | 0.00 | 0.00 | 0.00 | 91 | 1015.1 |
| 20260508075627 | 5 | 260 | 0.0 | 0.0 | 0.00 | 0.00 | 0.00 | 90 | 1015.2 |
| 20260508075124 | 5 | 290 | 0.0 | 0.0 | 0.00 | 0.00 | 0.00 | 89 | 1015.1 |
| 20260508074622 | 5 | 274 | 0.0 | 0.0 | 0.00 | 0.00 | 0.00 | 89 | 1015.3 |
| 20260508074118 | 6 | 272 | 0.0 | 0.0 | 0.00 | 0.00 | 0.00 | 89 | 1015.1 |
| 20260508073616 | 6 | 265 | 0.0 | 0.0 | 0.00 | 0.00 | 0.00 | 89 | 1015.2 |
| 20260508073114 | 6 | 290 | 0.0 | 0.0 | 0.00 | 0.00 | 0.00 | 88 | 1015.3 |
| 20260508072608 | 5 | 308 | 0.0 | 0.0 | 0.00 | 0.00 | 0.00 | 90 | 1015.3 |
| 20260508072106 | 5 | 313 | 0.0 | 0.0 | 0.00 | 0.00 | 0.00 | 91 | 1015.3 |
| 20260508071604 | 5 | 318 | 0.0 | 0.0 | 0.00 | 0.00 | 0.00 | 92 | 1015.0 |
| 20260508071102 | 5 | 322 | 0.0 | 0.0 | 0.00 | 0.00 | 0.00 | 93 | 1015.2 |
| 20260508070559 | 5 | 325 | 0.0 | 0.0 | 0.00 | 0.00 | 0.00 | 93 | 1015.1 |
| 20260508070057 | 5 | 305 | 0.0 | 0.0 | 0.00 | 0.00 | 0.00 | 93 | 1015.4 |
| 20260508065554 | 5 | 275 | 0.0 | 0.0 | 0.00 | 0.00 | 0.00 | 93 | 1015.2 |
| 20260508065052 | 5 | 258 | 0.0 | 0.0 | 0.00 | 0.00 | 0.00 | 94 | 1015.2 |
| 20260508064550 | 5 | 258 | 0.0 | 0.0 | 0.00 | 0.00 | 0.00 | 94 | 1015.1 |
| 20260508064048 | 5 | 257 | 0.0 | 0.0 | 0.00 | 0.00 | 0.00 | 94 | 1015.1 |
| 20260508063544 | 5 | 256 | 0.0 | 0.0 | 0.00 | 0.00 | 0.00 | 95 | 1015.1 |
| 20260508063043 | 4 | 257 | 0.0 | 0.0 | 0.00 | 0.00 | 0.00 | 96 | 1015.2 |
| 20260508062540 | 4 | 270 | 0.0 | 0.0 | 0.00 | 0.00 | 0.00 | 96 | 1015.2 |
| 20260508062036 | 4 | 270 | 0.0 | 0.0 | 0.00 | 0.00 | 0.00 | 96 | 1015.2 |
| 20260508061534 | 3 | 270 | 0.0 | 0.0 | 0.00 | 0.00 | 0.00 | 96 | 1015.2 |
| 20260508061031 | 3 | 270 | 0.0 | 0.0 | 0.00 | 0.00 | 0.00 | 96 | 1015.3 |
| 20260508060528 | 3 | 248 | 0.0 | 0.0 | 0.00 | 0.00 | 0.00 | 96 | 1015.4 |
| 20260508060025 | 3 | 266 | 0.0 | 0.0 | 0.00 | 0.00 | 0.00 | 96 | 1015.2 |
| 20260508055520 | 3 | 285 | 0.0 | 0.0 | 0.00 | 0.00 | 0.00 | 95 | 1015.7 |
| 20260508055018 | 3 | 285 | 0.0 | 0.0 | 0.00 | 0.00 | 0.00 | 95 | 1015.7 |
| 20260508054514 | 3 | 285 | 0.0 | 0.0 | 0.00 | 0.00 | 0.00 | 95 | 1015.4 |
| 20260508054012 | 3 | 285 | 0.0 | 0.0 | 0.00 | 0.00 | 0.00 | 94 | 1015.1 |
| 20260508053508 | 3 | 285 | 0.0 | 0.0 | 0.00 | 0.00 | 0.00 | 94 | 1015.3 |
| 20260508053007 | 3 | 285 | 0.0 | 0.0 | 0.00 | 0.00 | 0.00 | 94 | 1015.7 |
| 20260508052503 | 3 | 285 | 0.0 | 0.0 | 0.00 | 0.00 | 0.00 | 94 | 1015.5 |
| 20260508052000 | 4 | 285 | 0.0 | 0.0 | 0.00 | 0.00 | 0.00 | 94 | 1015.4 |
| 20260508051455 | 4 | 285 | 0.0 | 0.0 | 0.00 | 0.00 | 0.00 | 94 | 1015.9 |
| 20260508050951 | 3 | 285 | 0.0 | 0.0 | 0.00 | 0.00 | 0.00 | 93 | 1015.3 |
| 20260508050448 | 4 | 285 | 0.0 | 0.0 | 0.00 | 0.00 | 0.00 | 92 | 1015.7 |
| 20260508045945 | 4 | 285 | 0.0 | 0.0 | 0.00 | 0.00 | 0.00 | 92 | 1015.7 |
| 20260508045442 | 4 | 285 | 0.0 | 0.0 | 0.00 | 0.00 | 0.00 | 92 | 1015.5 |
| 20260508044939 | 4 | 285 | 0.0 | 0.0 | 0.00 | 0.00 | 0.00 | 91 | 1015.9 |
| 20260508044436 | 4 | 285 | 0.0 | 0.0 | 0.00 | 0.00 | 0.00 | 91 | 1015.8 |
| 20260508043931 | 4 | 285 | 0.0 | 0.0 | 0.00 | 0.00 | 0.00 | 91 | 1015.9 |
| 20260508043429 | 3 | 275 | 0.0 | 0.0 | 0.00 | 0.00 | 0.00 | 92 | 1016.1 |
| 20260508042925 | 3 | 241 | 0.0 | 0.0 | 0.00 | 0.00 | 0.00 | 92 | 1015.5 |
| 20260508042424 | 3 | 258 | 0.0 | 0.0 | 0.00 | 0.00 | 0.00 | 91 | 1015.5 |
| 20260508041920 | 3 | 277 | 0.0 | 0.0 | 0.00 | 0.00 | 0.00 | 90 | 1015.7 |
| 20260508041417 | 4 | 277 | 0.0 | 0.0 | 0.00 | 0.00 | 0.00 | 90 | 1015.5 |
| 20260508040913 | 4 | 277 | 0.0 | 0.0 | 0.00 | 0.00 | 0.00 | 90 | 1015.5 |
| 20260508040411 | 4 | 277 | 0.0 | 0.0 | 0.00 | 0.00 | 0.00 | 91 | 1015.7 |
| 20260508035909 | 3 | 277 | 0.0 | 0.0 | 0.00 | 0.00 | 0.00 | 90 | 1015.4 |
| 20260508035405 | 4 | 277 | 0.0 | 0.0 | 0.00 | 0.00 | 0.00 | 90 | 1015.7 |
| 20260508034902 | 4 | 277 | 0.0 | 0.0 | 0.00 | 0.00 | 0.00 | 90 | 1015.5 |
| 20260508034359 | 4 | 277 | 0.0 | 0.0 | 0.00 | 0.00 | 0.00 | 91 | 1015.7 |
| 20260508033855 | 4 | 277 | 0.0 | 0.0 | 0.00 | 0.00 | 0.00 | 91 | 1015.8 |
| 20260508033354 | 4 | 277 | 0.0 | 0.0 | 0.00 | 0.00 | 0.00 | 90 | 1015.7 |
| 20260508032852 | 4 | 277 | 0.0 | 0.0 | 0.00 | 0.00 | 0.00 | 90 | 1015.7 |
| 20260508032349 | 5 | 277 | 0.0 | 0.0 | 0.00 | 0.00 | 0.00 | 90 | 1015.5 |
| 20260508031845 | 4 | 277 | 0.0 | 0.0 | 0.00 | 0.00 | 0.00 | 90 | 1015.8 |
| 20260508031342 | 5 | 278 | 0.0 | 0.0 | 0.00 | 0.00 | 0.00 | 88 | 1015.9 |
| 20260508030838 | 4 | 278 | 0.0 | 0.0 | 0.00 | 0.00 | 0.00 | 88 | 1015.4 |
| 20260508030335 | 5 | 278 | 0.0 | 0.0 | 0.00 | 0.00 | 0.00 | 86 | 1015.7 |
| 20260508025832 | 5 | 278 | 0.0 | 0.0 | 0.00 | 0.00 | 0.00 | 86 | 1015.4 |
| 20260508025329 | 5 | 278 | 0.0 | 0.0 | 0.00 | 0.00 | 0.00 | 86 | 1015.5 |
| 20260508024826 | 5 | 278 | 0.0 | 0.0 | 0.00 | 0.00 | 0.00 | 87 | 1015.8 |
| 20260508024322 | 5 | 277 | 0.0 | 0.0 | 0.00 | 0.00 | 0.00 | 86 | 1015.7 |
| 20260508023820 | 5 | 278 | 0.0 | 0.0 | 0.00 | 0.00 | 0.00 | 85 | 1015.5 |
| 20260508023316 | 5 | 277 | 0.0 | 0.0 | 0.00 | 0.00 | 0.00 | 85 | 1015.5 |
| 20260508022813 | 5 | 277 | 0.0 | 0.0 | 0.00 | 0.00 | 0.00 | 82 | 1015.4 |
| 20260508022309 | 5 | 277 | 0.0 | 0.0 | 0.00 | 0.00 | 0.00 | 82 | 1015.5 |
| 20260508021806 | 6 | 277 | 0.0 | 0.0 | 0.00 | 0.00 | 0.00 | 80 | 1015.5 |
| 20260508021302 | 6 | 277 | 0.0 | 0.0 | 0.00 | 0.00 | 0.00 | 79 | 1015.8 |
| 20260508020758 | 6 | 277 | 0.0 | 0.0 | 0.00 | 0.00 | 0.00 | 79 | 1015.4 |
| 20260508020256 | 6 | 278 | 0.0 | 0.0 | 0.00 | 0.00 | 0.00 | 79 | 1015.7 |
| 20260508015752 | 6 | 278 | 0.0 | 0.0 | 0.00 | 0.00 | 0.00 | 77 | 1015.8 |
| 20260508015250 | 6 | 278 | 0.0 | 0.0 | 0.00 | 0.00 | 0.00 | 77 | 1015.9 |
| 20260508014747 | 6 | 278 | 0.0 | 0.0 | 0.00 | 0.00 | 0.00 | 77 | 1015.4 |
| 20260508014244 | 6 | 278 | 0.0 | 0.0 | 0.00 | 0.00 | 0.00 | 75 | 1015.4 |
| 20260508013739 | 7 | 278 | 0.0 | 0.0 | 0.00 | 0.00 | 0.00 | 74 | 1015.3 |
| 20260508013236 | 7 | 278 | 0.0 | 0.0 | 0.00 | 0.00 | 0.00 | 73 | 1015.5 |
| 20260508012734 | 7 | 278 | 0.0 | 0.0 | 0.00 | 0.00 | 0.00 | 71 | 1015.4 |
| 20260508012230 | 7 | 278 | 0.0 | 0.0 | 0.00 | 0.00 | 0.00 | 70 | 1015.2 |
| 20260508011728 | 7 | 278 | 0.0 | 0.0 | 0.00 | 0.00 | 0.00 | 70 | 1015.1 |
| 20260508011226 | 8 | 278 | 0.0 | 0.0 | 0.00 | 0.00 | 0.00 | 68 | 1015.1 |
| 20260508010722 | 8 | 278 | 0.0 | 0.0 | 0.00 | 0.00 | 0.00 | 66 | 1015.3 |
| 20260508010220 | 8 | 278 | 0.0 | 0.0 | 0.00 | 0.00 | 0.00 | 65 | 1015.0 |
| 20260508005717 | 8 | 278 | 0.0 | 0.0 | 0.00 | 0.00 | 0.00 | 64 | 1015.1 |
| 20260508005214 | 9 | 278 | 0.0 | 0.0 | 0.00 | 0.00 | 0.00 | 62 | 1015.0 |
| 20260508004710 | 10 | 276 | 0.0 | 0.0 | 0.00 | 0.00 | 0.00 | 59 | 1015.0 |
| 20260508004206 | 10 | 282 | 0.0 | 0.0 | 0.00 | 0.00 | 0.00 | 57 | 1014.9 |
| 20260508003703 | 10 | 285 | 0.0 | 0.0 | 0.00 | 0.00 | 0.00 | 57 | 1014.6 |
| 20260508003200 | 10 | 286 | 0.0 | 0.0 | 0.00 | 0.00 | 0.00 | 56 | 1014.5 |
| 20260508002656 | 10 | 286 | 0.0 | 0.0 | 0.00 | 0.00 | 0.00 | 55 | 1014.7 |
| 20260508002154 | 11 | 305 | 0.0 | 0.0 | 0.00 | 0.00 | 0.00 | 54 | 1014.8 |
| 20260508001649 | 11 | 259 | 0.0 | 0.0 | 0.00 | 0.00 | 0.00 | 51 | 1014.6 |
| 20260508001145 | 11 | 292 | 0.0 | 0.0 | 0.00 | 0.00 | 0.00 | 48 | 1014.7 |
| 20260508000641 | 12 | 292 | 0.0 | 0.0 | 0.00 | 0.00 | 0.00 | 46 | 1014.7 |
| 20260508000139 | 12 | 289 | 0.0 | 0.0 | 0.00 | 0.00 | 0.00 | 45 | 1014.6 |
| 20260507235636 | 12 | 301 | 1.6 | 1.6 | 0.00 | 0.00 | 0.00 | 43 | 1014.6 |
| 20260507235133 | 12 | 293 | 0.0 | 0.0 | 0.00 | 0.00 | 0.00 | 45 | 1014.7 |
| 20260507234630 | 12 | 295 | 0.0 | 0.0 | 0.00 | 0.00 | 0.00 | 42 | 1014.5 |
| 20260507234126 | 13 | 319 | 0.0 | 0.0 | 0.00 | 0.00 | 0.00 | 42 | 1014.5 |
| 20260507233623 | 13 | 333 | 4.8 | 4.8 | 0.00 | 0.00 | 0.00 | 41 | 1014.4 |
| 20260507233122 | 13 | 290 | 1.6 | 3.2 | 0.00 | 0.00 | 0.00 | 41 | 1014.6 |
| 20260507232618 | 13 | 316 | 3.2 | 3.2 | 0.00 | 0.00 | 0.00 | 41 | 1014.5 |
| 20260507232115 | 13 | 335 | 3.2 | 3.2 | 0.00 | 0.00 | 0.00 | 40 | 1014.5 |
| 20260507231611 | 13 | 343 | 1.6 | 1.6 | 0.00 | 0.00 | 0.00 | 40 | 1014.4 |
| 20260507231109 | 13 | 295 | 3.2 | 4.8 | 0.00 | 0.00 | 0.00 | 40 | 1014.3 |
| 20260507230605 | 13 | 300 | 1.6 | 3.2 | 0.00 | 0.00 | 0.00 | 39 | 1014.3 |
| 20260507225556 | 13 | 313 | 1.6 | 3.2 | 0.00 | 0.00 | 0.00 | 40 | 1014.6 |
| 20260507225053 | 13 | 317 | 1.6 | 1.6 | 0.00 | 0.00 | 0.00 | 42 | 1014.7 |
| 20260507224549 | 13 | 296 | 8.0 | 9.7 | 0.00 | 0.00 | 0.00 | 41 | 1014.4 |
| 20260507224046 | 13 | 324 | 8.0 | 11.3 | 0.00 | 0.00 | 0.00 | 41 | 1014.5 |
| 20260507223542 | 13 | 328 | 3.2 | 3.2 | 0.00 | 0.00 | 0.00 | 43 | 1014.6 |
| 20260507223039 | 13 | 333 | 4.8 | 4.8 | 0.00 | 0.00 | 0.00 | 41 | 1014.6 |
| 20260507222536 | 13 | 312 | 3.2 | 3.2 | 0.00 | 0.00 | 0.00 | 41 | 1014.7 |
| 20260507222033 | 13 | 359 | 6.4 | 8.0 | 0.00 | 0.00 | 0.00 | 40 | 1014.6 |
| 20260507221529 | 13 | 325 | 3.2 | 3.2 | 0.00 | 0.00 | 0.00 | 44 | 1014.6 |
| 20260507221026 | 13 | 286 | 4.8 | 4.8 | 0.00 | 0.00 | 0.00 | 41 | 1014.6 |
| 20260507220523 | 13 | 305 | 8.0 | 14.5 | 0.00 | 0.00 | 0.00 | 41 | 1014.5 |
| 20260507220021 | 13 | 356 | 4.8 | 11.3 | 0.00 | 0.00 | 0.00 | 43 | 1014.7 |
| 20260507215516 | 13 | 318 | 1.6 | 3.2 | 0.00 | 0.00 | 0.00 | 41 | 1014.6 |
| 20260507215015 | 13 | 303 | 4.8 | 4.8 | 0.00 | 0.00 | 0.00 | 42 | 1014.5 |
| 20260507214511 | 13 | 324 | 8.0 | 9.7 | 0.00 | 0.00 | 0.00 | 42 | 1014.3 |
| 20260507214007 | 14 | 321 | 11.3 | 12.9 | 0.00 | 0.00 | 0.00 | 41 | 1014.1 |
| 20260507213504 | 15 | 307 | 4.8 | 8.0 | 0.00 | 0.00 | 0.00 | 39 | 1014.0 |
| 20260507213001 | 15 | 355 | 8.0 | 9.7 | 0.00 | 0.00 | 0.00 | 41 | 1014.3 |
| 20260507212456 | 14 | 267 | 1.6 | 1.6 | 0.00 | 0.00 | 0.00 | 39 | 1013.9 |
| 20260507211953 | 15 | 330 | 9.7 | 16.1 | 0.00 | 0.00 | 0.00 | 38 | 1014.1 |
| 20260507211450 | 15 | 308 | 4.8 | 4.8 | 0.00 | 0.00 | 0.00 | 40 | 1014.1 |
| 20260507210947 | 14 | 16 | 3.2 | 8.0 | 0.00 | 0.00 | 0.00 | 41 | 1014.1 |
| 20260507210444 | 14 | 314 | 11.3 | 14.5 | 0.00 | 0.00 | 0.00 | 39 | 1014.2 |
| 20260507205940 | 13 | 292 | 8.0 | 11.3 | 0.00 | 0.00 | 0.00 | 40 | 1014.0 |
| 20260507205438 | 14 | 304 | 4.8 | 8.0 | 0.00 | 0.00 | 0.00 | 41 | 1014.0 |
| 20260507204934 | 15 | 323 | 3.2 | 3.2 | 0.00 | 0.00 | 0.00 | 41 | 1013.8 |
| 20260507204430 | 15 | 304 | 1.6 | 1.6 | 0.00 | 0.00 | 0.00 | 40 | 1013.9 |
| 20260507203928 | 15 | 11 | 8.0 | 16.1 | 0.00 | 0.00 | 0.00 | 38 | 1013.7 |
| 20260507203426 | 15 | 306 | 1.6 | 4.8 | 0.00 | 0.00 | 0.00 | 39 | 1014.0 |
| 20260507202922 | 16 | 307 | 4.8 | 4.8 | 0.00 | 0.00 | 0.00 | 40 | 1014.0 |
| 20260507202418 | 15 | 341 | 3.2 | 3.2 | 0.00 | 0.00 | 0.00 | 42 | 1013.8 |
| 20260507201914 | 15 | 315 | 8.0 | 12.9 | 0.00 | 0.00 | 0.00 | 40 | 1013.8 |
| 20260507201409 | 14 | 246 | 4.8 | 8.0 | 0.00 | 0.00 | 0.00 | 42 | 1014.1 |
| 20260507200907 | 15 | 334 | 4.8 | 8.0 | 0.00 | 0.00 | 0.00 | 41 | 1013.9 |
| 20260507200402 | 16 | 322 | 1.6 | 1.6 | 0.00 | 0.00 | 0.00 | 41 | 1013.7 |
| 20260507195858 | 15 | 309 | 0.0 | 0.0 | 0.00 | 0.00 | 0.00 | 41 | 1014.0 |
| 20260507195356 | 15 | 333 | 4.8 | 4.8 | 0.00 | 0.00 | 0.00 | 42 | 1014.0 |
| 20260507194853 | 15 | 346 | 8.0 | 9.7 | 0.00 | 0.00 | 0.00 | 41 | 1013.9 |
| 20260507194349 | 15 | 5 | 8.0 | 9.7 | 0.00 | 0.00 | 0.00 | 43 | 1014.0 |
| 20260507193846 | 15 | 285 | 4.8 | 4.8 | 0.00 | 0.00 | 0.00 | 42 | 1014.0 |
| 20260507193343 | 14 | 329 | 4.8 | 8.0 | 0.00 | 0.00 | 0.00 | 42 | 1014.0 |
| 20260507192839 | 15 | 299 | 8.0 | 11.3 | 0.00 | 0.00 | 0.00 | 40 | 1014.0 |
| 20260507192335 | 16 | 7 | 3.2 | 3.2 | 0.00 | 0.00 | 0.00 | 41 | 1014.0 |
| 20260507191832 | 15 | 316 | 3.2 | 3.2 | 0.00 | 0.00 | 0.00 | 41 | 1014.2 |
| 20260507191328 | 15 | 252 | 6.4 | 8.0 | 0.00 | 0.00 | 0.00 | 39 | 1014.1 |
| 20260507190826 | 15 | 246 | 0.0 | 1.6 | 0.00 | 0.00 | 0.00 | 44 | 1014.1 |
| 20260507190324 | 15 | 266 | 1.6 | 1.6 | 0.00 | 0.00 | 0.00 | 38 | 1014.1 |
| 20260507185822 | 15 | 114 | 1.6 | 1.6 | 0.00 | 0.00 | 0.00 | 42 | 1014.1 |
| 20260507185319 | 15 | 328 | 9.7 | 14.5 | 0.00 | 0.00 | 0.00 | 39 | 1014.3 |
| 20260507184816 | 15 | 270 | 6.4 | 8.0 | 0.00 | 0.00 | 0.00 | 38 | 1014.6 |
| 20260507184314 | 15 | 337 | 4.8 | 4.8 | 0.00 | 0.00 | 0.00 | 39 | 1014.5 |
| 20260507183810 | 15 | 327 | 8.0 | 9.7 | 0.00 | 0.00 | 0.00 | 40 | 1014.3 |
| 20260507183308 | 15 | 335 | 3.2 | 4.8 | 0.00 | 0.00 | 0.00 | 41 | 1014.3 |
| 20260507182805 | 15 | 323 | 6.4 | 8.0 | 0.00 | 0.00 | 0.00 | 41 | 1014.5 |
| 20260507182300 | 15 | 329 | 6.4 | 8.0 | 0.00 | 0.00 | 0.00 | 40 | 1014.1 |
| 20260507181757 | 15 | 253 | 3.2 | 3.2 | 0.00 | 0.00 | 0.00 | 41 | 1014.3 |
| 20260507181253 | 15 | 153 | 6.4 | 8.0 | 0.00 | 0.00 | 0.00 | 41 | 1014.4 |
| 20260507180749 | 15 | 328 | 8.0 | 9.7 | 0.00 | 0.00 | 0.00 | 37 | 1014.4 |
| 20260507180247 | 14 | 224 | 3.2 | 4.8 | 0.00 | 0.00 | 0.00 | 37 | 1014.4 |
| 20260507175742 | 13 | 318 | 9.7 | 14.5 | 0.00 | 0.00 | 0.00 | 40 | 1014.3 |
| 20260507175240 | 15 | 337 | 11.3 | 12.9 | 0.00 | 0.00 | 0.00 | 38 | 1014.5 |
| 20260507174737 | 15 | 287 | 4.8 | 12.9 | 0.00 | 0.00 | 0.00 | 45 | 1014.6 |
| 20260507174235 | 15 | 268 | 9.7 | 11.3 | 0.00 | 0.00 | 0.00 | 42 | 1014.6 |
| 20260507173732 | 15 | 247 | 1.6 | 3.2 | 0.00 | 0.00 | 0.00 | 45 | 1014.7 |
| 20260507173229 | 14 | 246 | 4.8 | 4.8 | 0.00 | 0.00 | 0.00 | 44 | 1014.7 |
| 20260507172725 | 14 | 244 | 4.8 | 4.8 | 0.00 | 0.00 | 0.00 | 47 | 1015.0 |
| 20260507172222 | 14 | 231 | 3.2 | 8.0 | 0.00 | 0.00 | 0.00 | 44 | 1015.1 |
| 20260507171722 | 15 | 297 | 1.6 | 1.6 | 0.00 | 0.00 | 0.00 | 43 | 1015.1 |
| 20260507171220 | 14 | 270 | 3.2 | 3.2 | 0.00 | 0.00 | 0.00 | 42 | 1015.1 |
| 20260507170716 | 14 | 303 | 4.8 | 8.0 | 0.00 | 0.00 | 0.00 | 46 | 1014.9 |
| 20260507170214 | 14 | 307 | 3.2 | 3.2 | 0.00 | 0.00 | 0.00 | 42 | 1014.8 |
| 20260507165709 | 15 | 298 | 8.0 | 9.7 | 0.00 | 0.00 | 0.00 | 42 | 1014.9 |
| 20260507165206 | 15 | 214 | 8.0 | 11.3 | 0.00 | 0.00 | 0.00 | 41 | 1014.9 |
| 20260507164702 | 13 | 281 | 3.2 | 3.2 | 0.00 | 0.00 | 0.00 | 44 | 1015.0 |
| 20260507164159 | 13 | 340 | 6.4 | 9.7 | 0.00 | 0.00 | 0.00 | 43 | 1015.0 |
| 20260507163656 | 13 | 293 | 4.8 | 4.8 | 0.00 | 0.00 | 0.00 | 43 | 1015.1 |
| 20260507163154 | 14 | 5 | 12.9 | 16.1 | 0.00 | 0.00 | 0.00 | 42 | 1015.1 |
| 20260507162649 | 13 | 260 | 1.6 | 3.2 | 0.00 | 0.00 | 0.00 | 45 | 1015.2 |
| 20260507162146 | 13 | 325 | 3.2 | 4.8 | 0.00 | 0.00 | 0.00 | 46 | 1015.0 |
| 20260507161642 | 14 | 264 | 3.2 | 3.2 | 0.00 | 0.00 | 0.00 | 48 | 1015.4 |
| 20260507161139 | 14 | 148 | 4.8 | 4.8 | 0.00 | 0.00 | 0.00 | 44 | 1015.2 |
| 20260507160635 | 13 | 151 | 1.6 | 3.2 | 0.00 | 0.00 | 0.00 | 45 | 1015.3 |
| 20260507160132 | 13 | 289 | 6.4 | 9.7 | 0.00 | 0.00 | 0.00 | 43 | 1015.3 |
| 20260507155627 | 13 | 278 | 8.0 | 11.3 | 0.00 | 0.00 | 0.00 | 44 | 1015.0 |
| 20260507155124 | 13 | 308 | 4.8 | 4.8 | 0.00 | 0.00 | 0.00 | 43 | 1014.8 |
| 20260507154621 | 14 | 267 | 8.0 | 12.9 | 0.00 | 0.00 | 0.00 | 44 | 1015.1 |
| 20260507154118 | 13 | 307 | 0.0 | 0.0 | 0.00 | 0.00 | 0.00 | 47 | 1014.9 |
| 20260507153614 | 14 | 332 | 4.8 | 4.8 | 0.00 | 0.00 | 0.00 | 48 | 1015.1 |
| 20260507153111 | 14 | 302 | 3.2 | 4.8 | 0.00 | 0.00 | 0.00 | 45 | 1015.0 |
| 20260507152608 | 13 | 286 | 4.8 | 4.8 | 0.00 | 0.00 | 0.00 | 45 | 1014.9 |
| 20260507152104 | 13 | 337 | 4.8 | 9.7 | 0.00 | 0.00 | 0.00 | 50 | 1015.0 |
| 20260507151600 | 13 | 299 | 3.2 | 3.2 | 0.00 | 0.00 | 0.00 | 47 | 1015.2 |
| 20260507151057 | 13 | 314 | 6.4 | 11.3 | 0.00 | 0.00 | 0.00 | 44 | 1015.0 |
| 20260507150554 | 13 | 342 | 4.8 | 4.8 | 0.00 | 0.00 | 0.00 | 47 | 1015.0 |
| 20260507150051 | 13 | 305 | 8.0 | 11.3 | 0.00 | 0.00 | 0.00 | 44 | 1014.9 |
| 20260507145546 | 13 | 254 | 6.4 | 11.3 | 0.00 | 0.00 | 0.00 | 46 | 1014.9 |
| 20260507145044 | 13 | 202 | 6.4 | 8.0 | 0.00 | 0.00 | 0.00 | 45 | 1015.0 |
| 20260507144540 | 13 | 214 | 3.2 | 4.8 | 0.00 | 0.00 | 0.00 | 51 | 1015.1 |
| 20260507144038 | 12 | 236 | 1.6 | 3.2 | 0.00 | 0.00 | 0.00 | 57 | 1015.1 |
| 20260507143535 | 12 | 285 | 3.2 | 3.2 | 0.00 | 0.00 | 0.00 | 53 | 1015.1 |
| 20260507143032 | 12 | 263 | 3.2 | 3.2 | 0.00 | 0.00 | 0.00 | 51 | 1015.1 |
| 20260507142527 | 12 | 283 | 1.6 | 3.2 | 0.00 | 0.00 | 0.00 | 54 | 1015.1 |
| 20260507142025 | 12 | 338 | 6.4 | 9.7 | 0.00 | 0.00 | 0.00 | 54 | 1015.0 |